Date String (YYYY-MM-DD hh:mm:ss) UTC,Instrument flags,Ambient pressure (hPa),Sample flow (lpm),Bypass flow (lpm),Sample temperature (°C),Ambient temperature (°C),ASC tube jacket temperature (°C),LED temperature (°C),Box temperature (°C),Sample RH (%),Span deviation,Mass concentration (μg/m³),Mass concentration (μg/m³),Mass concentration (μg/m³)
DateTimeUTC,F1_M11,P_M11,Q1_M11,Q2_M11,T1_M11,T2_M11,T3_M11,T4_M11,T5_M11,U1_M11,ZSPAN_M11,X0_M11,X2_M11,X1_M11
2023-05-27 17:00:00,,0827.8,4.99,0.00,29.0,27.6,00.0,37.3,30.6,30.0,0000.0,0007.62,0004.11,0003.51
2023-05-27 17:01:00,,0827.8,5.00,0.00,29.0,27.6,00.0,37.3,30.6,29.4,0000.0,0007.70,0004.15,0003.52
2023-05-27 17:02:00,,0827.7,5.00,0.00,29.0,27.6,00.0,37.3,30.6,29.0,0000.0,0007.88,0004.14,0003.53
2023-05-27 17:03:00,,0827.8,5.00,0.00,29.0,27.7,00.0,37.3,30.7,27.6,0000.0,0008.05,0004.13,0003.51
2023-05-27 17:04:00,,0827.8,5.00,0.00,29.0,27.7,00.0,37.3,30.7,27.2,0000.0,0008.91,0004.13,0003.50
2023-05-27 17:05:00,,0827.7,5.00,0.00,29.0,27.7,00.0,37.3,30.7,27.9,0000.0,0009.06,0004.13,0003.49
2023-05-27 17:06:00,,0827.7,4.99,0.00,29.0,27.7,00.0,37.3,30.7,29.0,0000.0,0009.03,0004.13,0003.50
2023-05-27 17:07:00,,0827.7,4.99,0.00,29.0,27.7,00.0,37.3,30.7,28.7,0000.0,0009.07,0004.16,0003.51
2023-05-27 17:08:00,,0827.7,5.02,0.00,29.0,27.7,00.0,37.3,30.7,29.3,0000.0,0009.09,0004.18,0003.52
2023-05-27 17:09:00,,0827.7,5.01,0.00,29.1,27.7,00.0,37.4,30.7,28.2,0000.0,0009.02,0004.15,0003.51
2023-05-27 17:10:00,,0827.7,4.99,0.00,29.1,27.7,00.0,37.4,30.7,28.2,0000.0,0008.89,0004.14,0003.52
2023-05-27 17:11:00,,0827.7,4.98,0.00,29.0,27.6,00.0,37.4,30.7,29.6,0000.0,0008.78,0004.15,0003.53
2023-05-27 17:12:00,,0827.7,5.01,0.00,29.1,27.6,00.0,37.4,30.7,30.3,0000.0,0008.75,0004.17,0003.55
2023-05-27 17:13:00,,0827.7,5.01,0.00,29.1,27.7,00.0,37.4,30.7,29.9,0000.0,0008.54,0004.18,0003.57
2023-05-27 17:14:00,,0827.7,4.99,0.00,29.1,27.7,00.0,37.4,30.7,30.4,0000.0,0008.43,0004.22,0003.62
2023-05-27 17:15:00,,0827.6,4.99,0.00,29.1,27.7,00.0,37.4,30.7,29.7,0000.0,0008.70,0004.26,0003.69
2023-05-27 17:16:00,,0827.6,4.99,0.00,29.1,27.6,00.0,37.4,30.7,29.3,0000.0,0008.25,0004.29,0003.74
2023-05-27 17:17:00,,0827.6,5.01,0.00,29.1,27.6,00.0,37.4,30.7,30.1,0000.0,0008.33,0004.32,0003.76
2023-05-27 17:18:00,,0827.6,5.00,0.00,29.1,27.6,00.0,37.4,30.7,30.4,0000.0,0008.31,0004.32,0003.77
2023-05-27 17:19:00,,0827.6,5.00,0.00,29.1,27.6,00.0,37.4,30.7,29.5,0000.0,0008.30,0004.31,0003.78
2023-05-27 17:20:00,,0827.7,5.00,0.00,29.1,27.6,00.0,37.4,30.7,29.1,0000.0,0008.38,0004.36,0003.81
2023-05-27 17:21:00,,0827.7,4.99,0.00,29.1,27.6,00.0,37.4,30.7,28.9,0000.0,0009.19,0004.38,0003.83
2023-05-27 17:22:00,,0827.7,4.99,0.00,29.1,27.7,00.0,37.4,30.8,30.0,0000.0,0009.22,0004.39,0003.85
2023-05-27 17:23:00,,0827.7,5.01,0.00,29.1,27.7,00.0,37.5,30.8,29.9,0000.0,0009.20,0004.38,0003.86
2023-05-27 17:24:00,,0827.7,5.01,0.00,29.1,27.7,00.0,37.5,30.8,29.3,0000.0,0009.91,0004.44,0003.89
2023-05-27 17:25:00,,0827.7,5.01,0.00,29.1,27.7,00.0,37.5,30.8,29.2,0000.0,0009.92,0004.42,0003.88
2023-05-27 17:26:00,,0827.7,4.99,0.00,29.1,27.7,00.0,37.5,30.8,29.2,0000.0,0008.94,0004.40,0003.87
2023-05-27 17:27:00,,0827.6,4.99,0.00,29.1,27.7,00.0,37.5,30.8,29.2,0000.0,0009.00,0004.42,0003.90
2023-05-27 17:28:00,,0827.6,5.00,0.00,29.2,27.8,00.0,37.5,30.8,29.0,0000.0,0008.95,0004.39,0003.91
2023-05-27 17:29:00,,0827.7,5.00,0.00,29.2,27.8,00.0,37.5,30.9,29.8,0000.0,0008.99,0004.37,0003.91
2023-05-27 17:30:00,,0827.7,5.00,0.00,29.2,27.9,00.0,37.5,30.9,30.0,0000.0,0009.12,0004.37,0003.90
2023-05-27 17:31:00,,0827.7,5.01,0.00,29.2,27.9,00.0,37.5,30.9,30.3,0000.0,0009.12,0004.34,0003.88
2023-05-27 17:32:00,,0827.6,5.00,0.00,29.2,27.9,00.0,37.5,30.9,29.9,0000.0,0008.27,0004.29,0003.85
2023-05-27 17:33:00,,0827.5,4.99,0.00,29.3,27.9,00.0,37.5,30.9,29.7,0000.0,0008.32,0004.34,0003.87
2023-05-27 17:34:00,,0827.5,4.99,0.00,29.2,27.9,00.0,37.6,30.9,29.3,0000.0,0008.31,0004.35,0003.89
2023-05-27 17:35:00,,0827.5,5.01,0.00,29.2,27.8,00.0,37.6,30.9,29.8,0000.0,0007.57,0004.29,0003.88
2023-05-27 17:36:00,,0827.5,5.01,0.00,29.2,27.8,00.0,37.6,30.9,30.1,0000.0,0007.78,0004.32,0003.89
2023-05-27 17:37:00,,0827.5,5.00,0.00,29.2,27.8,00.0,37.6,30.9,29.8,0000.0,0008.46,0004.40,0003.91
2023-05-27 17:38:00,,0827.5,4.99,0.00,29.3,27.8,00.0,37.6,30.9,29.6,0000.0,0008.70,0004.42,0003.89
2023-05-27 17:39:00,,0827.7,5.00,0.00,29.3,27.8,00.0,37.6,30.9,29.2,0000.0,0009.36,0004.42,0003.88
2023-05-27 17:40:00,,0827.8,5.00,0.00,29.3,27.8,00.0,37.6,30.9,28.9,0000.9,0009.69,0004.46,0003.89
2023-05-27 17:41:00,,0827.9,5.01,0.00,29.3,27.8,00.0,37.6,30.9,29.5,0002.1,0009.62,0004.46,0003.90
2023-05-27 17:42:00,,0827.7,5.00,0.00,29.3,27.9,00.0,37.6,30.9,30.5,0001.8,0009.71,0004.52,0003.91
2023-05-27 17:43:00,,0827.8,5.00,0.00,29.3,27.9,00.0,37.6,30.9,29.9,0001.7,0010.06,0004.59,0003.93
2023-05-27 17:44:00,,0827.7,4.99,0.00,29.3,27.9,00.0,37.6,30.9,30.0,0001.8,0010.21,0004.54,0003.92
2023-05-27 17:45:00,,0827.5,5.00,0.00,29.3,27.9,00.0,37.6,30.9,30.4,0000.7,0010.15,0004.51,0003.90
2023-05-27 17:46:00,,0827.4,4.99,0.00,29.3,27.9,00.0,37.7,30.9,30.8,0000.7,0010.20,0004.52,0003.89
2023-05-27 17:47:00,,0827.4,5.00,0.00,29.3,27.9,00.0,37.7,31.0,30.0,0001.3,0010.09,0004.55,0003.88
2023-05-27 17:48:00,,0827.4,5.00,0.00,29.3,27.9,00.0,37.7,30.9,29.7,0001.0,0009.58,0004.52,0003.86
2023-05-27 17:49:00,,0827.4,5.00,0.00,29.3,27.9,00.0,37.7,31.0,30.7,0000.2,0009.49,0004.49,0003.83
2023-05-27 17:50:00,,0827.4,5.00,0.00,29.3,27.8,00.0,37.7,31.0,30.3,0000.3,0009.16,0004.51,0003.84
2023-05-27 17:51:00,,0827.4,5.00,0.00,29.3,27.8,00.0,37.7,31.0,30.0,0000.0,0008.87,0004.50,0003.83
2023-05-27 17:52:00,,0827.4,5.01,0.00,29.3,27.9,00.0,37.7,31.0,30.0,-000.4,0009.02,0004.55,0003.84
2023-05-27 17:53:00,,0827.4,5.00,0.00,29.4,27.9,00.0,37.7,31.0,29.6,0000.0,0009.22,0004.51,0003.85
2023-05-27 17:54:00,,0827.4,5.01,0.00,29.4,27.9,00.0,37.7,31.0,29.6,0000.0,0009.02,0004.46,0003.83
2023-05-27 17:55:00,,0827.4,4.99,0.00,29.4,27.9,00.0,37.7,31.0,29.3,0000.0,0008.74,0004.47,0003.81
2023-05-27 17:56:00,,0827.4,4.99,0.00,29.4,27.9,00.0,37.7,31.0,28.7,0000.0,0008.82,0004.51,0003.80
2023-05-27 17:57:00,,0827.4,5.00,0.00,29.4,27.9,00.0,37.7,31.0,28.7,0000.0,0008.77,0004.47,0003.78
2023-05-27 17:58:00,,0827.4,5.00,0.00,29.4,27.9,00.0,37.7,31.0,28.9,0000.0,0008.90,0004.44,0003.76
2023-05-27 17:59:00,,0827.4,5.01,0.00,29.4,28.0,00.0,37.7,31.1,29.4,0000.0,0008.91,0004.40,0003.73
